STARLINK-32630, 62047

Orbit data source: Space-Track

STARLINK-32630, 62047 is a payload satellite owned by SpaceX/Seattle (US) in LEO that was launched on Thu, 21 Nov 2024 UTC via an FALCON 9 launch vehicle from the Air Force Eastern Test Range (AFETR). Payload-class satellites include a variety of spacecraft equipped with specific instruments for various scientific and technological missions. These include communications satellites like Starlink; space stations such as the ISS; scientific satellites like the Hubble; Earth observation satellites from companies like Planet Labs, Umbra, and HawkEye 360; GPS; miniature CubeSats for education and research; and military/defense satellites.

Loading next visibility...
Identifier
62047, 2024-216R
Orbit
LEO
Last TLE update
15 hours ago
Origin
Manufacturer
SpaceX/Seattle
Mission
Operational Commercial Communications
Bus & Motor
STARLINK V2M, Unknown motor
Mass
730 kg wet, ~700 kg dry
Launch date (UTC)
2024-11-21 (6 months ago)
Launch vehicle
FALCON 9
Launch site
Air Force Eastern Test Range (AFETR)
Object type
Payload
Rocket body
Debris
Shape & HBR
Box + 2 Pan, 29 m
Radar Cross Section
36.964 m², Large (>1 m²)

Expand to show TLE details & history

TLE from 15 hours ago
0 STARLINK-32630
1 62047U 24216R   25128.60799562  .00000157  00000-0  15231-4 0  9995
2 62047  43.0032 186.5031 0001626 241.5408 118.5280 15.27581802 27133
Epoch: 2025-05-08T14:35Z
Definitive object data (Epoch: 2025-05-08T14:35:30.821Z)
Latitude
-0.00002°
Longitude
100.9486°
Altitude
483.352 km
Speed
7.625 km/s
True Right ascension
12h 26m 00s
True Declination
0° 00' 00"
Sunlit
Object was in full shadow at TLE epoch
Visualization TLE readout
Latitude
-41.71183°
Longitude
-10.74879°
Altitude
494.699 km
Speed
7.618 km/s
Apparent Right ascension
03h 31m 14s
Apparent Declination
-42° 55' 45"
Sunlit
Object is in daylight
Visualization observer readout
Local Sidereal Time
13:58:43
Azimuth
252.564° W
Elevation
-72.455°
Doppler factor
1
Orbital elements
Apogee altitude
486.104 km
Perigee altitude
483.872 km
Semi-major axis
6,863.125 km
Eccentricity
0.0001626
Inclination
43.0032°
RAAN
186.5031°
Arg. of periapsis
241.5408°
True anomaly
118.54437°
Mean anomaly
118.528°
Eccentric anomaly
118.53618°
Mean motion
3.81734 °/min
BSTAR
0.000015231
Orbital period
94.31 mins
Loading maneuver chart data...
Loading SW <> Apogee altitude chart data...
Loading historical data...
Loading historical data...
Loading historical data...
Loading historical data...
Loading historical data...
Loading historical data...
Loading historical data...

STARLINK-32630 Visibility forecast

Observer location: undefined°, undefined°

Span
Click to sort rows by Start time (UTC) header in descending order
Start Az.
Max El. time (UTC)
Max El. Az.
Max El.
End time (UTC)
End Az.
5 mins2025-05-09 06:27:59.483Z193.036° SSW2025-05-09 06:30:59.483Z137.083° SSE19.511°2025-05-09 06:32:59.483Z100.727° ESE
6 mins2025-05-09 08:06:59.483Z248.072° W2025-05-09 08:08:59.483Z234.228° WSW44.002°2025-05-09 08:12:59.483Z72.382° E
6 mins2025-05-09 09:45:59.483Z287.281° WNW2025-05-09 09:47:59.483Z332.775° NNW36.895°2025-05-09 09:51:59.483Z75.57° E
6 mins2025-05-09 11:24:59.483Z290.613° WNW2025-05-09 11:27:59.483Z77.512° E42.567°2025-05-09 11:30:59.483Z102.894° ESE
4 mins2025-05-09 13:04:59.483Z247.798° W2025-05-09 13:05:59.483Z222.075° SW25.106°2025-05-09 13:08:59.483Z156.721° SSE
|